Wind_Speed
59 59 60 60 60 60 59 58 58 58 56 55 56 56 56 56 56 55 55 55 55 55 55 54 55 55 54 54 54 53 53 54 54 54 54 54 54 52
60 60 60 60 60 59 59 59 59 59 59 58 57 57 58 58 57 57 56 55 56 56 56 56 56 56 56 55 55 55 55 55 55 56 56 56 56 55
59 59 59 59 59 59 59 59 59 60 60 57 57 56 57 57 57 58 57 57 57 58 58 58 58 58 57 57 57 57 57 57 57 58 58 58 57 57
59 60 60 60 59 59 59 59 59 60 60 59 58 58 57 57 57 58 58 58 58 58 58 59 59 59 59 59 58 57 57 57 58 59 59 59 59 59
59 60 61 60 60 60 59 59 59 60 60 60 59 58 58 58 59 59 59 59 59 59 59 59 59 59 60 60 59 59 58 58 59 59 60 60 60 60
59 59 60 60 60 60 60 59 59 60 60 59 59 60 60 60 60 60 61 60 60 60 60 60 60 60 60 61 61 60 60 61 61 60 61 61 61 62
58 58 58 59 60 61 60 60 60 60 60 60 60 60 60 61 62 62 63 63 62 62 61 61 61 61 61 61 61 61 61 61 62 62 62 62 62 63
58 58 58 58 59 60 60 60 60 61 61 62 62 62 61 62 62 62 63 63 63 63 63 63 63 63 62 62 62 62 62 62 62 62 62 62 63 63
58 58 58 58 60 60 60 60 61 61 61 62 62 63 63 63 64 63 63 63 62 63 64 64 64 64 64 63 63 63 63 63 63 62 62 63 63 63
58 58 58 59 60 60 61 61 61 61 62 63 63 63 63 63 64 64 64 64 63 64 65 64 64 64 64 64 64 64 63 64 64 63 64 64 64 64
57 59 59 60 60 61 61 61 61 61 62 62 62 62 62 62 63 64 64 65 64 64 64 64 64 64 64 64 64 64 64 64 64 64 63 63 64 64
57 57 58 59 60 62 62 61 61 61 62 62 62 61 61 62 62 63 63 64 64 64 64 64 64 65 65 64 64 64 64 64 64 64 64 64 63 63
57 57 57 57 58 60 61 62 62 62 61 61 61 61 61 61 61 62 62 63 63 63 63 64 64 64 64 64 63 63 64 64 63 63 63 63 63 62
57 57 57 58 58 59 59 60 60 61 61 61 60 60 60 60 60 61 61 61 61 62 62 63 63 63 63 63 62 62 62 62 62 61 62 62 62 62
55 56 57 57 58 58 58 58 58 59 59 60 60 59 59 60 60 60 60 60 60 61 62 62 62 62 62 61 61 60 60 60 60 60 61 61 61 61
55 55 56 56 56 57 56 56 57 57 58 58 59 59 59 59 59 60 60 59 59 59 59 60 60 60 60 60 60 59 58 58 58 59 60 60 60 60
54 55 55 54 54 55 55 55 55 55 56 57 57 57 57 58 58 59 59 59 59 58 58 58 58 59 59 59 58 58 57 57 57 58 59 59 59 59
53 53 52 52 53 53 53 53 53 53 54 55 55 55 55 55 55 56 57 56 56 56 55 56 57 57 57 57 56 56 55 55 56 56 56 56 56 56
51 50 50 50 50 51 52 52 52 52 52 52 53 53 54 53 53 53 54 54 54 54 54 55 55 55 55 54 53 54 54 54 54 55 55 54 54 54
49 49 48 48 48 49 49 49 50 50 51 51 51 51 51 51 51 51 51 51 52 52 52 52 53 53 53 52 51 51 52 52 52 53 53 52 52 52
48 48 47 47 47 47 47 48 48 48 49 49 49 49 49 49 49 49 49 49 49 49 49 49 49 50 50 49 49 48 49 50 50 50 50 50 50 50
46 46 46 46 46 46 46 47 47 48 48 48 47 47 47 47 47 47 47 47 47 47 47 47 47 47 47 47 47 47 47 48 48 48 49 49 49 49
43 44 45 45 46 46 45 46 46 46 46 46 46 46 45 45 45 45 45 45 45 45 45 45 46 46 46 46 46 46 46 46 47 47 48 48 48 47
Wind_Direction
262 262 262 262 262 262 262 262 260 260 261 262 262 261 261 261 262 262 261 261 261 261 261 262 263 263 264 264 264 264 263 263 262 261 262 263 263 264
262 263 263 263 263 263 264 263 262 262 261 261 260 261 261 262 261 261 261 260 261 261 262 262 262 263 263 264 263 263 263 263 261 261 262 262 263 263
262 263 263 264 264 263 264 264 263 262 261 260 260 260 261 262 263 262 261 260 261 261 262 262 262 263 263 263 264 263 263 263 262 262 261 261 262 263
262 262 262 263 263 263 264 264 263 263 262 261 261 261 261 262 263 263 263 263 262 262 262 263 263 264 263 263 264 263 262 262 263 262 261 261 261 262
262 262 261 261 262 262 263 263 263 263 263 262 261 262 262 262 263 263 263 263 264 263 263 263 263 264 264 263 263 263 263 262 263 263 262 262 262 261
261 262 262 262 262 262 263 263 263 263 263 263 262 262 262 263 263 263 263 263 264 264 263 263 263 264 264 263 264 264 263 263 263 263 263 262 262 261
262 262 262 262 263 264 264 264 264 264 263 263 264 264 264 263 263 263 263 264 264 264 264 263 263 264 264 264 264 265 264 263 263 263 263 262 262 262
262 262 263 263 264 264 263 264 264 264 264 263 264 265 265 264 264 264 264 264 264 264 264 263 263 264 264 265 265 265 265 265 265 264 263 263 262 262
262 262 262 263 264 264 264 264 264 265 264 264 265 265 265 265 264 264 264 264 264 263 263 263 263 264 264 264 265 266 266 266 265 265 264 263 263 262
262 261 262 262 263 264 264 265 264 264 265 265 265 266 266 265 265 265 265 265 264 263 263 263 263 263 264 264 266 266 267 266 266 265 264 263 263 262
264 263 263 263 263 264 264 264 264 264 265 265 266 266 266 266 266 266 265 265 264 264 264 264 264 264 264 265 266 266 266 266 265 264 264 264 263 263
264 264 264 263 264 264 264 264 264 265 265 265 265 265 265 266 266 266 266 265 265 265 265 265 265 265 265 265 266 266 266 265 265 264 264 263 263 263
264 264 264 264 264 265 266 265 266 265 265 265 264 264 265 265 266 266 266 266 266 265 265 265 265 265 266 265 264 264 265 265 265 264 264 264 263 262
265 265 265 265 265 266 267 267 266 265 265 264 264 265 265 266 266 266 267 267 266 266 265 265 265 266 265 265 264 263 263 264 263 263 263 263 263 262
266 266 266 266 266 267 267 266 266 265 265 265 265 265 265 266 266 266 266 267 266 265 265 265 265 265 265 265 265 264 263 262 262 262 262 262 262 261
267 267 267 267 266 266 266 266 266 266 266 266 266 266 266 265 266 267 267 266 266 265 265 264 264 264 264 265 265 264 263 262 262 262 262 261 261 260
269 269 268 266 266 266 266 265 265 265 266 266 266 266 265 266 266 267 266 266 266 265 264 264 264 264 264 264 264 263 263 262 263 263 262 261 260 259
269 268 267 266 266 265 266 266 265 265 266 266 266 266 266 266 266 266 265 265 265 264 264 264 263 263 263 263 264 263 262 262 262 262 262 261 259 258
269 268 267 266 266 266 266 267 266 266 266 266 266 266 266 265 265 265 265 264 264 263 263 263 263 263 263 263 264 264 263 262 262 262 262 261 260 258
268 268 267 267 266 266 267 267 267 267 267 267 267 266 265 265 265 265 265 264 264 263 263 263 263 263 264 264 262 262 262 263 263 262 261 260 260 259
269 268 267 267 267 266 267 267 267 267 267 267 267 266 265 265 265 264 264 263 262 263 263 263 263 263 263 263 262 262 262 263 263 261 260 259 259 258
269 268 268 268 268 268 268 268 267 267 267 268 267 267 265 265 264 263 262 262 262 263 263 262 262 262 263 263 263 262 262 262 262 261 261 261 261 260
270 269 269 269 269 269 269 268 268 267 267 266 266 266 265 264 263 263 262 263 263 263 263 262 262 263 264 264 263 263 262 262 262 262 262 262 262 261
Height
5640 5641 5643 5644 5646 5648 5649 5651 5653 5655 5658 5660 5660 5661 5662 5664 5666 5668 5670 5671 5674 5675 5677 5678 5680 5682 5683 5685 5686 5688 5689 5691 5693 5694 5696 5698 5700 5702
5624 5625 5627 5628 5630 5631 5633 5635 5637 5639 5642 5644 5645 5646 5647 5649 5650 5652 5654 5656 5658 5660 5662 5663 5665 5667 5668 5670 5671 5672 5674 5676 5677 5679 5681 5683 5685 5687
5608 5609 5611 5612 5613 5615 5616 5618 5620 5622 5624 5627 5629 5630 5631 5633 5634 5636 5638 5640 5642 5644 5646 5647 5649 5651 5652 5654 5655 5657 5659 5660 5662 5663 5665 5668 5670 5672
5592 5593 5595 5596 5597 5598 5600 5601 5603 5605 5607 5610 5612 5614 5615 5617 5618 5620 5622 5624 5626 5628 5629 5631 5633 5634 5636 5638 5639 5640 5642 5644 5645 5647 5649 5652 5654 5656
5575 5577 5578 5580 5581 5582 5584 5585 5587 5588 5590 5592 5595 5596 5598 5600 5602 5603 5605 5607 5609 5611 5612 5614 5616 5617 5619 5621 5622 5624 5625 5627 5629 5631 5632 5634 5636 5639
5559 5560 5562 5563 5565 5566 5567 5569 5570 5571 5573 5575 5577 5579 5581 5582 5584 5586 5588 5590 5592 5593 5595 5597 5599 5600 5602 5603 5605 5606 5607 5609 5610 5612 5613 5616 5618 5620
5543 5544 5546 5547 5549 5550 5551 5552 5553 5554 5556 5557 5559 5561 5563 5564 5566 5567 5570 5571 5573 5574 5577 5579 5581 5583 5584 5585 5587 5588 5589 5590 5592 5594 5595 5597 5599 5602
5527 5528 5529 5531 5532 5533 5534 5535 5536 5538 5539 5540 5542 5544 5545 5546 5547 5548 5550 5552 5555 5558 5558 5560 5562 5564 5566 5567 5568 5569 5570 5572 5573 5575 5576 5578 5580 5582
5510 5511 5513 5514 5514 5515 5516 5518 5519 5520 5521 5523 5524 5526 5527 5528 5529 5530 5531 5532 5535 5537 5537 5541 5543 5545 5547 5548 5549 5550 5551 5552 5554 5555 5557 5559 5560 5562
5493 5494 5495 5496 5497 5498 5499 5500 5501 5503 5503 5505 5506 5507 5507 5508 5509 5510 5511 5513 5516 5517 5517 5521 5524 5525 5527 5529 5530 5531 5532 5533 5534 5535 5537 5539 5540 5543
5477 5477 5478 5479 5479 5480 5481 5483 5484 5485 5485 5486 5487 5488 5489 5489 5489 5490 5492 5493 5496 5498 5498 5501 5504 5506 5508 5510 5511 5511 5512 5512 5514 5515 5517 5519 5521 5523
5460 5460 5461 5461 5461 5460 5462 5464 5466 5467 5467 5468 5469 5470 5471 5471 5471 5471 5472 5474 5476 5479 5481 5482 5484 5485 5489 5492 5492 5492 5492 5493 5494 5495 5497 5499 5501 5503
5442 5443 5443 5443 5443 5443 5444 5446 5447 5448 5449 5450 5451 5452 5453 5453 5453 5453 5454 5455 5457 5460 5462 5462 5464 5465 5467 5472 5474 5473 5473 5474 5475 5477 5478 5480 5482 5484
5425 5425 5425 5425 5425 5426 5426 5427 5428 5429 5430 5431 5433 5434 5435 5435 5436 5436 5436 5437 5438 5441 5442 5442 5444 5446 5448 5450 5453 5455 5455 5455 5456 5458 5460 5461 5463 5465
5407 5408 5408 5408 5408 5408 5409 5409 5409 5410 5412 5413 5415 5416 5417 5417 5418 5418 5419 5420 5421 5422 5423 5424 5425 5427 5428 5431 5434 5435 5436 5437 5438 5440 5442 5443 5445 5447
5390 5390 5391 5391 5391 5391 5391 5391 5392 5393 5393 5395 5396 5397 5398 5399 5399 5400 5401 5402 5404 5405 5405 5406 5407 5408 5411 5412 5414 5417 5418 5419 5421 5422 5423 5426 5427 5429
5372 5373 5373 5373 5374 5374 5374 5374 5375 5375 5376 5377 5378 5379 5380 5381 5382 5382 5383 5384 5386 5388 5389 5389 5389 5391 5393 5394 5397 5399 5400 5402 5403 5404 5405 5408 5410 5412
5355 5355 5356 5356 5356 5357 5357 5357 5358 5359 5359 5359 5360 5361 5362 5363 5364 5365 5366 5367 5369 5370 5371 5372 5372 5374 5376 5378 5380 5381 5382 5384 5385 5386 5387 5390 5393 5395
5338 5338 5339 5339 5339 5340 5340 5341 5341 5342 5342 5342 5343 5344 5345 5346 5347 5348 5349 5350 5352 5353 5354 5355 5356 5357 5359 5362 5364 5364 5364 5366 5368 5370 5372 5374 5377 5379
5322 5322 5323 5323 5324 5324 5324 5325 5325 5326 5326 5326 5327 5328 5328 5330 5331 5332 5333 5334 5336 5337 5338 5339 5340 5341 5343 5345 5348 5349 5349 5350 5352 5354 5356 5358 5360 5363
5307 5307 5308 5308 5308 5309 5309 5309 5309 5310 5310 5311 5311 5312 5312 5313 5315 5316 5317 5318 5320 5321 5323 5324 5325 5326 5327 5329 5332 5334 5335 5335 5336 5338 5340 5342 5345 5347
5292 5293 5293 5293 5293 5293 5294 5294 5294 5295 5295 5296 5296 5297 5297 5298 5299 5301 5302 5303 5305 5306 5308 5309 5310 5311 5313 5315 5316 5318 5320 5321 5322 5323 5325 5327 5329 5333
5278 5278 5278 5278 5278 5279 5279 5279 5279 5280 5280 5281 5281 5282 5283 5284 5285 5286 5287 5289 5290 5292 5293 5294 5296 5297 5298 5300 5301 5303 5305 5306 5307 5309 5311 5313 5315 5317